TimeCST,TemperatureF,Dew PointF,Humidity,Sea Level PressureIn,VisibilityMPH,Wind Direction,Wind SpeedMPH,Gust SpeedMPH,PrecipitationIn,Events,Conditions,WindDirDegrees,DateUTC
12:53 AM,39.9,36.0,86,30.16,10.0,ESE,3.5,-,N/A,,Overcast,110,2012-11-05 06:53:00
1:53 AM,41.0,37.0,86,30.17,10.0,North,3.5,-,N/A,,Overcast,350,2012-11-05 07:53:00
3:53 AM,41.0,35.6,81,30.14,10.0,WNW,6.9,-,N/A,,Mostly Cloudy,300,2012-11-05 09:53:00
4:53 AM,42.1,36.0,79,30.12,10.0,ESE,6.9,-,N/A,,Overcast,110,2012-11-05 10:53:00
5:53 AM,44.6,33.8,66,30.10,10.0,SE,4.6,-,N/A,,Overcast,140,2012-11-05 11:53:00
6:53 AM,44.1,35.1,71,30.12,10.0,Calm,Calm,-,N/A,,Mostly Cloudy,0,2012-11-05 12:53:00
8:53 AM,45.0,35.1,68,30.13,10.0,East,3.5,-,N/A,,Overcast,90,2012-11-05 14:53:00
9:53 AM,45.0,37.9,76,30.12,10.0,East,5.8,-,0.00,,Overcast,80,2012-11-05 15:53:00
10:53 AM,46.0,36.0,68,30.11,10.0,East,8.1,-,N/A,,Overcast,100,2012-11-05 16:53:00
11:53 AM,46.9,36.0,66,30.11,10.0,SSE,4.6,-,N/A,,Overcast,150,2012-11-05 17:53:00
12:53 PM,46.9,36.0,66,30.07,10.0,East,6.9,-,N/A,,Overcast,100,2012-11-05 18:53:00
1:53 PM,46.0,39.0,76,30.07,8.0,SE,3.5,-,0.00,Rain,Light Rain,140,2012-11-05 19:53:00
2:53 PM,46.0,39.9,79,30.06,7.0,East,5.8,-,0.00,Rain,Light Rain,80,2012-11-05 20:53:00
3:53 PM,45.0,39.9,82,30.06,6.0,NE,9.2,-,0.00,Rain,Light Rain,50,2012-11-05 21:53:00
4:53 PM,44.1,41.0,89,30.06,7.0,ENE,8.1,-,0.00,Rain,Light Rain,60,2012-11-05 22:53:00
5:53 PM,44.1,41.0,89,30.08,9.0,East,4.6,-,0.00,,Overcast,80,2012-11-05 23:53:00
6:53 PM,44.1,41.0,89,30.09,8.0,Calm,Calm,-,N/A,,Overcast,0,2012-11-06 00:53:00
7:53 PM,43.0,39.9,89,30.09,7.0,ENE,6.9,-,N/A,,Overcast,70,2012-11-06 01:53:00
8:53 PM,43.0,39.9,89,30.10,7.0,ENE,10.4,-,N/A,,Overcast,60,2012-11-06 02:53:00
9:53 PM,43.0,39.0,86,30.09,6.0,ENE,5.8,-,N/A,,Overcast,60,2012-11-06 03:53:00
10:53 PM,43.0,39.0,86,30.07,6.0,ENE,3.5,-,0.00,,Overcast,60,2012-11-06 04:53:00
11:45 PM,42.8,39.2,87,30.06,6.0,NNE,3.5,-,N/A,,Overcast,30,2012-11-06 05:45:00
11:53 PM,43.0,39.0,86,30.07,6.0,NNE,3.5,-,N/A,,Overcast,30,2012-11-06 05:53:00